Weather History for KUTA - July, 2013

Change the Weather History Date:

Friday, July 12, 2013

  Actual Average (KMEM) Record (KMEM)
Temperature  
Mean Temperature 74 °F 83 °F  
Max Temperature 87 °F 92 °F 106 °F (1930)
Min Temperature 62 °F 74 °F 63 °F (1957)
Degree Days  
Heating Degree Days 0 0  
Month to date heating degree days 0  
Since 1 June heating degree days 0  
Since 1 July heating degree days 0  
Cooling Degree Days 10 18  
Month to date cooling degree days 212  
Year to date cooling degree days 971  
Since 1 June cooling degree days 650  
Growing Degree Days 24 (Base 50)    
Moisture  
Dew Point 61 °F    
Average Humidity 61    
Maximum Humidity 88    
Minimum Humidity 40    
Precipitation  
Precipitation 0.00 in 0.15 in 4.56 in (2010)
Month to date precipitation 1.69  
Year to date precipitation 29.60  
Snow  
Snow 0.00 in 0.00 in - ()
Month to date snowfall 0.0  
Since 1 June snowfall 0.0  
Since 1 July snowfall 0.0  
Snow Depth -    
Sea Level Pressure  
Sea Level Pressure 29.99 in    
Wind  
Wind Speed 9 mph (North)    
Max Wind Speed 16 mph    
Max Gust Speed 21 mph    
Visibility 10 miles    
Events      
T = Trace of Precipitation, MM = Missing Value Source: NWS Daily Summary

Daily Weather History Graph

Daily Weather History Graph

Search for Another Location

Airport or City:

Trip Planner

Search our weather history database for the weather conditions in past years. The results will help you decide how hot, cold, wet, or windy it might be!

Date:

Astronomy

Jul. 12, 2013 Rise Set
Actual Time 5:57 AM CDT 8:16 PM CDT
Civil Twilight 5:28 AM CDT 8:44 PM CDT
Nautical Twilight 4:53 AM CDT 9:20 PM CDT
Astronomical Twilight 4:14 AM CDT 9:59 PM CDT
Moon 10:02 AM CDT (7/12) 10:40 PM CDT (7/12)
Length of Visible Light 15h 16m
Length of Day
14h 18m
Waxing Crescent, 17% of the Moon is Illuminated
Jul 12
Waxing Crescent
Jul 15
First Quarter
Jul 22
Full
Jul 29
Last Quarter
Aug 6
New

Hourly Weather History & Observations

Time (CDT) Temp. Heat Index Dew Point Humidity Pressure Visibility Wind Dir Wind Speed Gust Speed Precip Events Conditions
12:15 AM 73.4 °F - 64.4 °F 73% 29.96 in 10.0 mi NNE 8.1 mph - N/A   Clear
12:35 AM 73.4 °F - 64.4 °F 73% 29.97 in 10.0 mi NNE 8.1 mph - N/A   Clear
12:55 AM 73.4 °F - 64.4 °F 73% 29.97 in 10.0 mi NNE 6.9 mph - N/A   Clear
1:15 AM 73.4 °F - 62.6 °F 69% 29.97 in 10.0 mi NNE 6.9 mph - N/A   Clear
1:35 AM 71.6 °F - 62.6 °F 73% 29.97 in 10.0 mi NNE 9.2 mph - N/A   Clear
1:55 AM 71.6 °F - 62.6 °F 73% 29.97 in 10.0 mi NE 9.2 mph - N/A   Clear
2:15 AM 71.6 °F - 62.6 °F 73% 29.97 in 10.0 mi NE 8.1 mph - N/A   Clear
2:35 AM 71.6 °F - 62.6 °F 73% 29.97 in 10.0 mi NNE 8.1 mph - N/A   Clear
2:55 AM 71.6 °F - 60.8 °F 69% 29.97 in 10.0 mi NNE 6.9 mph - N/A   Clear
3:15 AM 69.8 °F - 60.8 °F 73% 29.97 in 10.0 mi NNE 6.9 mph - N/A   Clear
3:35 AM 69.8 °F - 60.8 °F 73% 29.98 in 10.0 mi NNE 6.9 mph - N/A   Clear
3:55 AM 68.0 °F - 60.8 °F 78% 29.98 in 10.0 mi NNE 5.8 mph - N/A   Clear
4:15 AM 66.2 °F - 60.8 °F 83% 29.98 in 10.0 mi North 5.8 mph - N/A   Clear
4:35 AM 64.4 °F - 60.8 °F 88% 29.98 in 10.0 mi North 6.9 mph - N/A   Clear
4:55 AM 64.4 °F - 60.8 °F 88% 29.99 in 10.0 mi North 5.8 mph - N/A   Clear
5:15 AM 64.4 °F - 59.0 °F 83% 30.00 in 10.0 mi North 6.9 mph - N/A   Clear
5:35 AM 64.4 °F - 59.0 °F 83% 30.00 in 10.0 mi North 6.9 mph - N/A   Clear
5:55 AM 62.6 °F - 59.0 °F 88% 30.00 in 10.0 mi North 5.8 mph - N/A   Clear
6:15 AM 64.4 °F - 60.8 °F 88% 30.01 in 10.0 mi North 5.8 mph - N/A   Clear
6:35 AM 66.2 °F - 60.8 °F 83% 30.01 in 10.0 mi North 5.8 mph - N/A   Clear
6:55 AM 68.0 °F - 62.6 °F 83% 30.02 in 10.0 mi North 5.8 mph - N/A   Clear
7:15 AM 69.8 °F - 62.6 °F 78% 30.03 in 10.0 mi North 6.9 mph - N/A   Clear
7:35 AM 71.6 °F - 60.8 °F 69% 30.03 in 10.0 mi NNE 8.1 mph - N/A   Clear
7:55 AM 71.6 °F - 60.8 °F 69% 30.03 in 10.0 mi NNE 9.2 mph - N/A   Clear
8:15 AM 73.4 °F - 60.8 °F 65% 30.04 in 10.0 mi NNE 10.4 mph - N/A   Clear
8:35 AM 73.4 °F - 60.8 °F 65% 30.03 in 10.0 mi NNE 10.4 mph - N/A   Clear
8:55 AM 77.0 °F - 62.6 °F 61% 30.04 in 10.0 mi NNE 10.4 mph - N/A   Clear
9:15 AM 77.0 °F - 62.6 °F 61% 30.03 in 10.0 mi NNE 10.4 mph - N/A   Clear
9:35 AM 78.8 °F - 62.6 °F 57% 30.03 in 10.0 mi NNE 10.4 mph - N/A   Clear
9:55 AM 78.8 °F - 62.6 °F 57% 30.03 in 10.0 mi NNE 11.5 mph - N/A   Clear
10:15 AM 80.6 °F 81.5 °F 60.8 °F 51% 30.03 in 10.0 mi North 11.5 mph - N/A   Clear
10:35 AM 80.6 °F 81.5 °F 60.8 °F 51% 30.03 in 10.0 mi North 12.7 mph - N/A   Clear
10:55 AM 80.6 °F 81.1 °F 59.0 °F 48% 30.03 in 10.0 mi NNE 13.8 mph - N/A   Clear
11:15 AM 80.6 °F 81.1 °F 59.0 °F 48% 30.02 in 10.0 mi North 13.8 mph 19.6 mph N/A   Clear
11:35 AM 80.6 °F 81.1 °F 59.0 °F 48% 30.03 in 10.0 mi North 10.4 mph - N/A   Clear
11:55 AM 82.4 °F 82.9 °F 60.8 °F 48% 30.02 in 10.0 mi North 11.5 mph - N/A   Clear
12:15 PM 82.4 °F 82.9 °F 60.8 °F 48% 30.01 in 10.0 mi North 15.0 mph - N/A   Clear
12:35 PM 84.2 °F 84.4 °F 60.8 °F 45% 30.01 in 10.0 mi North 12.7 mph 19.6 mph N/A   Clear
12:55 PM 84.2 °F 84.4 °F 60.8 °F 45% 30.00 in 10.0 mi North 16.1 mph - N/A   Clear
1:15 PM 86.0 °F 86.1 °F 60.8 °F 43% 30.00 in 10.0 mi North 11.5 mph 20.7 mph N/A   Clear
1:35 PM 86.0 °F 86.1 °F 60.8 °F 43% 29.99 in 10.0 mi NNW 12.7 mph 18.4 mph N/A   Clear
1:55 PM 86.0 °F 85.4 °F 59.0 °F 40% 29.99 in 10.0 mi North 12.7 mph 20.7 mph N/A   Clear
2:15 PM 86.0 °F 85.4 °F 59.0 °F 40% 29.99 in 10.0 mi North 8.1 mph 18.4 mph N/A   Clear
2:35 PM 87.8 °F 87.6 °F 60.8 °F 40% 29.99 in 10.0 mi NNE 11.5 mph 19.6 mph N/A   Clear
2:55 PM 87.8 °F 87.6 °F 60.8 °F 40% 29.99 in 10.0 mi NNE 11.5 mph - N/A   Clear
3:15 PM 86.0 °F 86.1 °F 60.8 °F 43% 29.98 in 10.0 mi NW 11.5 mph 19.6 mph N/A   Clear
3:35 PM 87.8 °F 87.6 °F 60.8 °F 40% 29.97 in 10.0 mi NNE 13.8 mph 19.6 mph N/A   Scattered Clouds
3:55 PM 87.8 °F 87.6 °F 60.8 °F 40% 29.97 in 10.0 mi NNW 9.2 mph 17.3 mph N/A   Clear
4:15 PM 87.8 °F 87.6 °F 60.8 °F 40% 29.97 in 10.0 mi North 13.8 mph 18.4 mph N/A   Scattered Clouds
4:35 PM 87.8 °F 87.6 °F 60.8 °F 40% 29.96 in 10.0 mi NNE 12.7 mph 18.4 mph N/A   Scattered Clouds
4:55 PM 87.8 °F 87.6 °F 60.8 °F 40% 29.96 in 10.0 mi North 9.2 mph - N/A   Scattered Clouds
5:15 PM 87.8 °F 87.6 °F 60.8 °F 40% 29.96 in 10.0 mi North 11.5 mph - N/A   Scattered Clouds
5:35 PM 87.8 °F 87.6 °F 60.8 °F 40% 29.96 in 10.0 mi North 12.7 mph - N/A   Scattered Clouds
5:55 PM 86.0 °F 86.1 °F 60.8 °F 43% 29.95 in 10.0 mi North 11.5 mph 16.1 mph N/A   Clear
6:15 PM 86.0 °F 86.6 °F 62.6 °F 45% 29.95 in 10.0 mi North 11.5 mph - N/A   Clear
6:35 PM 86.0 °F 86.1 °F 60.8 °F 43% 29.95 in 10.0 mi North 13.8 mph - N/A   Clear
6:55 PM 84.2 °F 84.4 °F 60.8 °F 45% 29.96 in 10.0 mi North 13.8 mph - N/A   Clear
7:15 PM 82.4 °F 82.9 °F 60.8 °F 48% 29.96 in 10.0 mi North 10.4 mph 16.1 mph N/A   Clear
7:35 PM 82.4 °F 82.9 °F 60.8 °F 48% 29.96 in 10.0 mi North 9.2 mph - N/A   Clear
7:55 PM 80.6 °F 81.5 °F 60.8 °F 51% 29.96 in 10.0 mi North 9.2 mph - N/A   Clear
8:15 PM 78.8 °F - 62.6 °F 57% 29.96 in 10.0 mi North 8.1 mph - N/A   Clear
8:35 PM 78.8 °F - 62.6 °F 57% 29.97 in 10.0 mi North 6.9 mph - N/A   Clear
8:55 PM 77.0 °F - 62.6 °F 61% 29.97 in 10.0 mi North 6.9 mph - N/A   Clear
9:15 PM 77.0 °F - 62.6 °F 61% 29.98 in 10.0 mi North 5.8 mph - N/A   Clear
9:35 PM 75.2 °F - 62.6 °F 65% 29.99 in 10.0 mi North 5.8 mph - N/A   Clear
9:55 PM 73.4 °F - 62.6 °F 69% 29.99 in 10.0 mi NNE 5.8 mph - N/A   Clear
10:15 PM 73.4 °F - 62.6 °F 69% 30.00 in 10.0 mi North 4.6 mph - N/A   Clear
10:35 PM 71.6 °F - 64.4 °F 78% 30.00 in 10.0 mi NNE 5.8 mph - N/A   Clear
10:55 PM 71.6 °F - 64.4 °F 78% 30.00 in 10.0 mi NNE 4.6 mph - N/A   Clear
11:15 PM 71.6 °F - 64.4 °F 78% 30.00 in 10.0 mi NNE 4.6 mph - N/A   Clear
11:35 PM 69.8 °F - 64.4 °F 83% 30.00 in 10.0 mi NNE 5.8 mph - N/A   Clear
11:55 PM 69.8 °F - 64.4 °F 83% 30.00 in 10.0 mi NE 4.6 mph - N/A   Clear